Regional Weather Roundup
Issued by NWS

Home | Current Version | Previous Version | Text Only | Print | Product List | Glossary Off
Versions: 1 2 3 4 5 6 7 8 9 10 11 12 13 14 15 16 17 18 19 20 21 22 23 24 25 26 27 28 29 30 31 32 33 34 35 36 37 38 39 40 41 42 43 44 45 46 47 48 49 50

000
ASUS43 KIND 211259
RWRIN

WEATHER ROUNDUP FOR INDIANA
NATIONAL WEATHER SERVICE INDIANAPOLIS IN
900 AM EDT TUE APR 21 2015

NOTE: "FAIR" INDICATES FEW OR NO CLOUDS BELOW 12,000 FEET WITH NO
SIGNIFICANT WEATHER AND/OR OBSTRUCTIONS TO VISIBILITY.

* - STATION DOES NOT REPORT WEATHER SUCH AS PRECIPITATION OR FOG.

+ - STATION NOT QUALITY CONTROLLED BY THE NATIONAL WEATHER SERVICE.
    USE DATA WITH CAUTION...ESPECIALLY DEWPOINT AND RELATIVE
    HUMIDITY OBSERVATIONS.

INZ001>003-010>013-019-020-211400-
NORTHWEST INDIANA

CITY           SKY/WX    TMP DP  RH WIND       PRES   REMARKS
GARY /AIRPORT/ MOSUNNY   45  27  49 SW18      29.64S
RENSSELAER +   SUNNY     41  37  87 SW13      29.69S

$$

LMZ046-743>745-211400-
SOUTHERN LAKE MICHIGAN

STATION/POSITION TIME  TEMP    WIND        PRES    WAVE
                       AIR SEA DIR/SP/G            HT
                 (UTC) (F)     (DEG/KT/KT) (MB)    (FT)
BURNS HARBOR     1200   43     240/ 20/ 23 1004.1S
MICHIGAN CITY    1200   43     220/ 26/ 32   N/A
5NW MICH CITY    1200   43 46  260/ 19/ 23   N/A     6

$$

INZ004-005-014>016-021>024-211400-
NORTH CENTRAL INDIANA

CITY           SKY/WX    TMP DP  RH WIND       PRES   REMARKS
ELKHART        SUNNY     43  28  56 SW16G26   29.63R
GOSHEN         MOSUNNY   42  32  67 SW16G24   29.64R
SOUTH BEND     SUNNY     44  31  60 W14G25    29.64R

$$

INZ006>009-017-018-025>027-211400-
NORTHEAST INDIANA

CITY           SKY/WX    TMP DP  RH WIND       PRES   REMARKS
ANGOLA *+      SUNNY     45  30  57 W21       29.61S
FORT WAYNE     MOSUNNY   45  35  68 SW17      29.68S

$$

INZ028-029-035-036-043>045-051>053-211400-
WEST CENTRAL INDIANA

CITY           SKY/WX    TMP DP  RH WIND       PRES   REMARKS
CRAWFORDSVL +  SUNNY     44  29  56 SW12      29.75S
GREENCASTLE +  SUNNY     45  30  57 SW5       29.78R
LAFAYETTE      SUNNY     43  34  70 SW10      29.73R
TERRE HAUTE    MOSUNNY   47  33  58 W13       29.79R

$$

INZ030>032-037>040-046>048-054>057-064-065-211400-
CENTRAL INDIANA

CITY           SKY/WX    TMP DP  RH WIND       PRES   REMARKS
ANDERSON       SUNNY     45  30  57 SW12G17   29.76
CP ATTERBURY + SUNNY     48  32  53 SW10      29.80R
COLUMBUS       SUNNY     46  30  53 SW14      29.80R
FRANKFORT +    SUNNY     44  35  70 SW16      29.74S
INDIANAPOLIS   MOSUNNY   47  33  58 SW17      29.76R
-EAGLE CREEK   SUNNY     46  32  58 VRB7G18   29.75R
KOKOMO *+      SUNNY     45  34  65 W21       29.72R
MT COMFORT *+  SUNNY     46  25  42 W20G25    29.76R
SHELBYVILLE    SUNNY     49  35  58 SW12      29.77R

$$

INZ033-034-041-042-049-050-058-059-211400-
EAST CENTRAL INDIANA

CITY           SKY/WX    TMP DP  RH WIND       PRES   REMARKS
MUNCIE         SUNNY     46  33  60 W16G26    29.73R

$$

INZ060-061-067>069-081>083-085>088-211400-
SOUTHWEST INDIANA

CITY           SKY/WX    TMP DP  RH WIND       PRES   REMARKS
EVANSVILLE     SUNNY     52  39  61 SW12      29.89R
HUNTINGBURG *+ SUNNY     50  36  57 SW14G20   29.87S

$$

INZ062-063-066-070>080-084-089>092-211400-
SOUTH CENTRAL AND SOUTHEAST INDIANA

CITY           SKY/WX    TMP DP  RH WIND       PRES   REMARKS
BLOOMINGTON    SUNNY     49  32  52 W12G22    29.80R
MADISON *+     SUNNY     46  32  57 SW12G17   29.85S

$$




USA.gov is the U.S. government's official web portal to all federal, state and local government web resources and services.